When you browse on this site, cookies collect data to enhance your experience and personalize the content and advertising you see.
Visit our Privacy Policy to learn more. By continuing to use the site, you agree to this use of cookies and data.
  • In Sweden
  • List of Countries
  • For 7 days
  • Water Temperature
  • Weather Map
  • Weather Widgets
  • user-avatar
    Login

    Hourly Weather Serowe

    Today, 12 November, Tuesday

    Time Temperature Precipitation Wind Pressure Humidity
    00:00 +23°C° 1.2 mm 2 mps 665 mmHg 75%
    01:00 +21°C° 1.2 mm 2 mps 665 mmHg 79%
    02:00 +22°C° 1.2 mm 1 mps 664 mmHg 83%
    03:00 +22°C° 0.3 mm 1 mps 664 mmHg 83%
    04:00 +22°C° 0.3 mm 1 mps 664 mmHg 83%
    05:00 +22°C° 0.3 mm 1 mps 664 mmHg 82%
    06:00 +23°C° 0 mm 1 mps 665 mmHg 78%
    07:00 +24°C° 0 mm 2 mps 665 mmHg 73%
    08:00 +25°C° 0 mm 3 mps 666 mmHg 69%
    09:00 +27°C° 0 mm 3 mps 666 mmHg 61%
    10:00 +28°C° 0 mm 4 mps 666 mmHg 54%
    11:00 +30°C° 0 mm 4 mps 666 mmHg 47%
    12:00 +31°C° 0.3 mm 3 mps 666 mmHg 44%
    13:00 +31°C° 0.3 mm 3 mps 665 mmHg 41%
    14:00 +32°C° 0.3 mm 2 mps 665 mmHg 38%
    15:00 +32°C° 0 mm 2 mps 664 mmHg 39%
    16:00 +32°C° 0 mm 2 mps 664 mmHg 39%
    17:00 +31°C° 0 mm 2 mps 664 mmHg 40%
    18:00 +30°C° 0.1 mm 2 mps 664 mmHg 45%
    19:00 +29°C° 0.1 mm 3 mps 664 mmHg 50%
    20:00 +28°C° 0.1 mm 3 mps 665 mmHg 55%
    21:00 +27°C° 1.2 mm 4 mps 665 mmHg 63%
    22:00 +25°C° 1.2 mm 5 mps 665 mmHg 71%
    23:00 +23°C° 1.2 mm 6 mps 665 mmHg 78%

    Tomorrow, 13 November, Wednesday

    Time Temperature Precipitation Wind Pressure Humidity
    00:00 +22°C° 1.4 mm 6 mps 664 mmHg 81%
    01:00 +22°C° 1.4 mm 6 mps 664 mmHg 84%
    02:00 +21°C° 1.4 mm 6 mps 664 mmHg 87%
    03:00 +21°C° 0 mm 6 mps 664 mmHg 87%
    04:00 +21°C° 0 mm 5 mps 664 mmHg 87%
    05:00 +21°C° 0 mm 5 mps 664 mmHg 87%
    06:00 +21°C° 0 mm 5 mps 664 mmHg 83%
    07:00 +22°C° 0 mm 5 mps 665 mmHg 79%
    08:00 +23°C° 0 mm 5 mps 666 mmHg 75%
    09:00 +26°C° 0 mm 5 mps 666 mmHg 67%
    10:00 +28°C° 0 mm 4 mps 666 mmHg 60%
    11:00 +30°C° 0 mm 4 mps 666 mmHg 52%
    12:00 +31°C° 0.2 mm 3 mps 666 mmHg 47%
    13:00 +32°C° 0.2 mm 2 mps 665 mmHg 42%
    14:00 +33°C° 0.2 mm 1 mps 665 mmHg 37%
    15:00 +32°C° 0 mm 2 mps 664 mmHg 38%
    16:00 +32°C° 0 mm 2 mps 664 mmHg 39%
    17:00 +33°C° 0 mm 3 mps 663 mmHg 40%
    18:00 +30°C° 0.3 mm 2 mps 664 mmHg 47%
    19:00 +28°C° 0.3 mm 2 mps 664 mmHg 55%
    20:00 +26°C° 0.3 mm 1 mps 664 mmHg 62%
    21:00 +25°C° 0.7 mm 2 mps 664 mmHg 70%
    22:00 +22°C° 0.7 mm 3 mps 664 mmHg 78%
    23:00 +21°C° 0.7 mm 5 mps 664 mmHg 85%

    Day after tomorrow, 14 November, Thursday

    Time Temperature Precipitation Wind Pressure Humidity
    00:00 +21°C° 1.3 mm 4 mps 664 mmHg 87%
    01:00 +21°C° 1.3 mm 3 mps 663 mmHg 88%
    02:00 +20°C° 1.3 mm 2 mps 663 mmHg 89%
    03:00 +21°C° 0.4 mm 2 mps 663 mmHg 86%
    04:00 +21°C° 0.4 mm 2 mps 664 mmHg 83%
    05:00 +22°C° 0.4 mm 3 mps 664 mmHg 81%
    06:00 +24°C° 0.3 mm 3 mps 664 mmHg 76%
    07:00 +25°C° 0.3 mm 2 mps 665 mmHg 72%
    08:00 +26°C° 0.3 mm 2 mps 665 mmHg 67%
    09:00 +28°C° 0.7 mm 3 mps 665 mmHg 60%
    10:00 +29°C° 0.7 mm 4 mps 665 mmHg 53%
    11:00 +32°C° 0.7 mm 5 mps 665 mmHg 45%
    12:00 +32°C° 0.1 mm 5 mps 664 mmHg 45%
    13:00 +32°C° 0.1 mm 5 mps 664 mmHg 46%
    14:00 +32°C° 0.1 mm 5 mps 663 mmHg 46%
    15:00 +32°C° 0.1 mm 5 mps 663 mmHg 45%
    16:00 +32°C° 0.1 mm 4 mps 662 mmHg 44%
    17:00 +32°C° 0.1 mm 4 mps 662 mmHg 43%
    18:00 +30°C° 0 mm 3 mps 662 mmHg 45%
    19:00 +28°C° 0 mm 3 mps 662 mmHg 48%
    20:00 +27°C° 0 mm 2 mps 662 mmHg 51%
    21:00 +26°C° 0 mm 2 mps 662 mmHg 48%
    22:00 +25°C° 0 mm 2 mps 662 mmHg 45%
    23:00 +24°C° 0 mm 1 mps 663 mmHg 42%

    15 November, Friday

    Time Temperature Precipitation Wind Pressure Humidity
    00:00 +24°C° 0 mm 1 mps 662 mmHg 41%
    01:00 +23°C° 0 mm 1 mps 662 mmHg 41%
    02:00 +21°C° 0 mm 0 mps 661 mmHg 40%
    03:00 +22°C° 0 mm 1 mps 661 mmHg 44%
    04:00 +22°C° 0 mm 1 mps 661 mmHg 49%
    05:00 +21°C° 0 mm 1 mps 661 mmHg 53%
    06:00 +23°C° 0 mm 1 mps 662 mmHg 49%
    07:00 +25°C° 0 mm 1 mps 663 mmHg 44%
    08:00 +27°C° 0 mm 1 mps 663 mmHg 39%
    09:00 +29°C° 0 mm 1 mps 664 mmHg 31%
    10:00 +31°C° 0 mm 1 mps 664 mmHg 23%
    11:00 +34°C° 0 mm 2 mps 664 mmHg 14%
    12:00 +35°C° 0 mm 3 mps 664 mmHg 12%
    13:00 +36°C° 0 mm 3 mps 663 mmHg 10%
    14:00 +36°C° 0 mm 4 mps 663 mmHg 9%
    15:00 +36°C° 0 mm 4 mps 662 mmHg 9%
    16:00 +35°C° 0 mm 4 mps 662 mmHg 10%
    17:00 +35°C° 0 mm 3 mps 661 mmHg 10%
    18:00 +33°C° 0 mm 3 mps 661 mmHg 14%
    19:00 +30°C° 0 mm 3 mps 662 mmHg 18%
    20:00 +28°C° 0 mm 2 mps 662 mmHg 21%
    21:00 +27°C° 0 mm 3 mps 662 mmHg 32%
    22:00 +26°C° 0 mm 4 mps 662 mmHg 42%
    23:00 +25°C° 0 mm 5 mps 663 mmHg 53%

    16 November, Saturday

    Time Temperature Precipitation Wind Pressure Humidity
    00:00 +23°C° 0 mm 6 mps 662 mmHg 58%
    01:00 +22°C° 0 mm 6 mps 662 mmHg 64%
    02:00 +21°C° 0 mm 6 mps 662 mmHg 69%
    03:00 +20°C° 0 mm 6 mps 662 mmHg 71%
    04:00 +20°C° 0 mm 6 mps 662 mmHg 74%
    05:00 +19°C° 0 mm 6 mps 662 mmHg 76%
    06:00 +20°C° 0 mm 6 mps 662 mmHg 73%
    07:00 +20°C° 0 mm 6 mps 663 mmHg 70%
    08:00 +21°C° 0 mm 6 mps 663 mmHg 67%
    09:00 +25°C° 0 mm 5 mps 664 mmHg 59%
    10:00 +27°C° 0 mm 5 mps 664 mmHg 50%
    11:00 +29°C° 0 mm 4 mps 664 mmHg 42%
    12:00 +30°C° 0 mm 3 mps 664 mmHg 38%
    13:00 +31°C° 0 mm 2 mps 663 mmHg 34%
    14:00 +32°C° 0 mm 2 mps 663 mmHg 30%
    15:00 +32°C° 0 mm 2 mps 663 mmHg 30%
    16:00 +31°C° 0 mm 1 mps 662 mmHg 30%
    17:00 +31°C° 0 mm 1 mps 662 mmHg 30%
    18:00 +30°C° 0 mm 2 mps 662 mmHg 33%
    19:00 +29°C° 0 mm 2 mps 662 mmHg 35%
    20:00 +28°C° 0 mm 2 mps 662 mmHg 38%
    21:00 +27°C° 0 mm 2 mps 663 mmHg 40%
    22:00 +26°C° 0 mm 3 mps 663 mmHg 43%
    23:00 +25°C° 0 mm 3 mps 663 mmHg 46%

    17 November, Sunday

    Time Temperature Precipitation Wind Pressure Humidity
    00:00 +25°C° 0 mm 3 mps 662 mmHg 48%
    01:00 +23°C° 0 mm 4 mps 662 mmHg 50%
    02:00 +23°C° 0 mm 4 mps 661 mmHg 52%
    03:00 +23°C° 0 mm 4 mps 661 mmHg 54%
    04:00 +22°C° 0 mm 5 mps 662 mmHg 55%
    05:00 +22°C° 0 mm 5 mps 662 mmHg 56%
    06:00 +23°C° 0 mm 6 mps 662 mmHg 53%
    07:00 +24°C° 0 mm 6 mps 663 mmHg 50%
    08:00 +26°C° 0 mm 7 mps 664 mmHg 47%
    09:00 +28°C° 0 mm 6 mps 664 mmHg 42%
    10:00 +30°C° 0 mm 6 mps 664 mmHg 37%
    11:00 +33°C° 0 mm 5 mps 664 mmHg 32%
    12:00 +34°C° 0 mm 4 mps 664 mmHg 28%
    13:00 +36°C° 0 mm 3 mps 664 mmHg 24%
    14:00 +37°C° 0 mm 2 mps 663 mmHg 19%
    15:00 +37°C° 0 mm 2 mps 663 mmHg 19%
    16:00 +37°C° 0 mm 2 mps 663 mmHg 18%
    17:00 +36°C° 0 mm 2 mps 662 mmHg 17%
    18:00 +34°C° 0 mm 3 mps 662 mmHg 21%
    19:00 +32°C° 0 mm 4 mps 662 mmHg 26%
    20:00 +29°C° 0 mm 4 mps 662 mmHg 31%
    21:00 +29°C° 0 mm 4 mps 662 mmHg 34%
    22:00 +28°C° 0 mm 4 mps 662 mmHg 37%
    23:00 +27°C° 0 mm 4 mps 662 mmHg 39%
    Show more